Location: Boiro
(42.6475°N, 8.8834°W)
Time: 04:10:21
(UTC+01:00)

Vanguard 1 Rocket - Pass Details

Date: 03 December 2021
Orbit: 651 x 4225 km, 34.3° (Epoch: 26 January)

Event Time Altitude Azimuth Distance (km) Brightness Sun altitude
Exits shadow 08:15:12 - 273° (W) 5,854 10.9 -6.2°
Reaches altitude 10° 08:17:39 10° 270° (W) 5,401 10.8 -5.8°
Maximum altitude 08:35:13 58° 198° (SSW) 4,178 10.8 -2.9°
Drops below altitude 10° 09:00:26 10° 127° (SE) 7,349 14.4 1.1°
Sets 09:06:03 0° 124° (SE) 8,212 16.2 2.0°
